Location: Br�ttisellen
(47.4227°N, 8.6287°E)
Time: 11:07:46
(UTC+00:00)

Cosmos 468 Rocket - Pass Details

Date: 09 April 2020
Orbit: 745 x 779 km, 74.0° (Epoch: 25 May)

Event Time Altitude Azimuth Distance (km) Brightness Sun altitude
Rises 20:33:44 0° 334° (NNW) 3,217 8.4 -22.7°
Reaches altitude 10° 20:36:08 10° 331° (NNW) 2,284 7.4 -23.0°
Maximum altitude 20:41:13 60° 253° (WSW) 855 4.3 -23.6°
Enters shadow 20:42:35 44° 198° (SSW) 1,026 4.4 -23.7°
